CW0652 Weather Reports


time (UTC)temp
C
wind
direction
speed
KPH
gust
KPH
rain 1hr
cm
rain 24hr
cm
rain mn
cm
humidity
%
barometer
mb
20260502152310 9 12 3.2 4.8 0.00 0.00 0.00 51 1015.6
20260502151808 9 17 0.0 0.0 0.00 0.00 0.00 48 1015.6
20260502151304 8 265 3.2 4.8 0.00 0.00 0.00 53 1015.3
20260502150803 8 16 0.0 0.0 0.00 0.00 0.00 55 1015.5
20260502150259 8 14 3.2 3.2 0.00 0.00 0.00 51 1015.6
20260502130647 6 356 3.2 3.2 0.00 0.00 0.00 76 1015.2
20260502130145 6 15 0.0 0.0 0.00 0.00 0.00 79 1015.5
20260502123630 5 46 0.0 0.0 0.00 0.00 0.00 90 1015.3
20260502123127 4 46 0.0 0.0 0.00 0.00 0.00 92 1015.1
20260502122624 3 47 0.0 0.0 0.00 0.00 0.00 92 1015.0
20260502122120 3 37 0.0 0.0 0.00 0.00 0.00 94 1015.3
20260502121618 3 37 0.0 0.0 0.00 0.00 0.00 94 1015.3
20260502121115 3 37 0.0 0.0 0.00 0.00 0.00 94 1015.4
20260502120611 3 35 0.0 0.0 0.00 0.00 0.00 95 1015.4
20260502120109 2 35 0.0 0.0 0.00 0.00 0.00 95 1015.2
20260502115607 2 35 0.0 0.0 0.00 0.00 0.00 95 1015.4
20260502115102 2 35 0.0 0.0 0.00 0.00 0.00 95 1015.3
20260502114559 2 36 0.0 0.0 0.00 0.00 0.00 95 1015.5
20260502114055 2 36 0.0 0.0 0.00 0.00 0.00 95 1015.2
20260502113553 2 36 0.0 0.0 0.00 0.00 0.00 95 1015.2
20260502113052 2 34 0.0 0.0 0.00 0.00 0.00 95 1015.1
20260502112549 1 34 0.0 0.0 0.00 0.00 0.00 95 1015.2
20260502112047 1 34 0.0 0.0 0.00 0.00 0.00 95 1014.8
20260502111544 1 34 0.0 0.0 0.00 0.00 0.00 95 1015.1
20260502111041 1 34 0.0 0.0 0.00 0.00 0.00 95 1015.1
20260502110538 1 34 0.0 0.0 0.00 0.00 0.00 95 1015.1
20260502110036 1 33 0.0 0.0 0.00 0.00 0.00 95 1015.1
20260502105533 1 32 0.0 0.0 0.00 0.00 0.00 95 1014.9
20260502105031 1 32 0.0 0.0 0.00 0.00 0.00 95 1015.1
20260502104527 1 32 0.0 0.0 0.00 0.00 0.00 94 1015.1
20260502104025 1 33 0.0 0.0 0.00 0.00 0.00 94 1014.9
20260502103523 1 32 0.0 0.0 0.00 0.00 0.00 94 1015.2
20260502103021 1 29 0.0 0.0 0.00 0.00 0.00 94 1015.2
20260502102516 1 29 0.0 0.0 0.00 0.00 0.00 94 1015.1
20260502102014 1 29 0.0 0.0 0.00 0.00 0.00 94 1015.3
20260502101512 1 30 0.0 0.0 0.00 0.00 0.00 94 1015.2
20260502101010 1 30 0.0 0.0 0.00 0.00 0.00 94 1015.3
20260502100508 1 30 0.0 0.0 0.00 0.00 0.00 94 1015.2
20260502091442 1 29 0.0 0.0 0.00 0.00 0.00 93 1015.4
20260502090939 1 29 0.0 0.0 0.00 0.00 0.00 92 1015.3
20260502090436 2 29 0.0 0.0 0.00 0.00 0.00 92 1015.4
20260502071331 3 28 0.0 0.0 0.00 0.00 0.00 85 1015.2
20260502070829 3 28 0.0 0.0 0.00 0.00 0.00 85 1015.1
20260502070326 3 28 0.0 0.0 0.00 0.00 0.00 84 1015.2
20260502065825 3 28 0.0 0.0 0.00 0.00 0.00 84 1015.3
20260502065323 3 28 0.0 0.0 0.00 0.00 0.00 83 1015.1
20260502064821 3 28 0.0 0.0 0.00 0.00 0.00 82 1015.2
20260502064319 3 29 0.0 0.0 0.00 0.00 0.00 82 1015.1
20260502063815 3 29 0.0 0.0 0.00 0.00 0.00 81 1015.1
20260502063313 4 29 0.0 0.0 0.00 0.00 0.00 80 1015.3
20260502062810 4 29 0.0 0.0 0.00 0.00 0.00 80 1015.2
20260502062308 4 25 0.0 0.0 0.00 0.00 0.00 79 1015.2
20260502061806 4 25 0.0 0.0 0.00 0.00 0.00 78 1015.3
20260502061304 5 24 0.0 0.0 0.00 0.00 0.00 77 1015.4
20260502060759 5 24 0.0 0.0 0.00 0.00 0.00 77 1015.3
20260502060254 5 16 0.0 0.0 0.00 0.00 0.00 76 1015.2
20260502055753 5 15 0.0 0.0 0.00 0.00 0.00 76 1015.3
20260502055250 5 7 0.0 0.0 0.00 0.00 0.00 76 1015.6
20260502054749 5 11 0.0 0.0 0.00 0.00 0.00 76 1015.4
20260502054246 5 15 0.0 0.0 0.00 0.00 0.00 77 1015.4
20260502053744 5 19 0.0 0.0 0.00 0.00 0.00 76 1015.5
20260502053241 5 19 0.0 0.0 0.00 0.00 0.00 75 1015.3
20260502052739 5 18 0.0 0.0 0.00 0.00 0.00 75 1015.2
20260502052237 6 19 0.0 0.0 0.00 0.00 0.00 75 1015.5
20260502051734 6 18 0.0 0.0 0.00 0.00 0.00 74 1015.5
20260502051233 6 12 0.0 0.0 0.00 0.00 0.00 74 1015.5
20260502050729 6 12 0.0 0.0 0.00 0.00 0.00 74 1015.6
20260502050225 6 17 0.0 0.0 0.00 0.00 0.00 74 1015.4
20260502045722 6 20 1.6 1.6 0.00 0.00 0.00 74 1015.5
20260502045219 6 16 0.0 0.0 0.00 0.00 0.00 74 1015.8
20260502044716 6 22 0.0 0.0 0.00 0.00 0.00 74 1015.6
20260502044212 6 42 0.0 0.0 0.00 0.00 0.00 75 1015.5
20260502043710 7 15 0.0 0.0 0.00 0.00 0.00 75 1015.6
20260502043207 7 50 0.0 0.0 0.00 0.00 0.00 75 1015.7
20260502042706 7 8 0.0 0.0 0.00 0.00 0.00 74 1015.8
20260502042204 7 15 0.0 0.0 0.00 0.00 0.00 74 1015.6
20260502041701 7 12 1.6 1.6 0.00 0.00 0.00 74 1015.6
20260502041158 7 15 0.0 0.0 0.00 0.00 0.00 73 1015.6
20260502040655 7 16 0.0 0.0 0.00 0.00 0.00 73 1015.5
20260502040152 7 48 0.0 0.0 0.00 0.00 0.00 72 1015.5
20260502035648 7 6 0.0 0.0 0.00 0.00 0.00 72 1015.6
20260502035145 7 21 1.6 1.6 0.00 0.00 0.00 71 1015.5
20260502034643 7 55 0.0 0.0 0.00 0.00 0.00 71 1015.5
20260502034141 7 1 1.6 3.2 0.00 0.00 0.00 71 1015.8
20260502033639 7 334 0.0 0.0 0.00 0.00 0.00 71 1015.5
20260502033137 7 333 0.0 3.2 0.00 0.00 0.00 72 1015.7
20260502032632 7 4 1.6 1.6 0.00 0.00 0.00 72 1015.5
20260502032129 8 2 1.6 3.2 0.00 0.00 0.00 72 1015.4
20260502031627 8 35 0.0 0.0 0.00 0.00 0.00 72 1015.7
20260502031124 8 13 1.6 1.6 0.00 0.00 0.00 72 1015.6
20260502030623 8 4 1.6 1.6 0.00 0.00 0.00 72 1015.4
20260502030121 8 9 1.6 1.6 0.00 0.00 0.00 71 1015.4
20260502025617 8 355 0.0 0.0 0.00 0.00 0.00 73 1015.4
20260502025116 8 131 3.2 4.8 0.00 0.00 0.00 73 1015.1
20260502024613 8 24 0.0 0.0 0.00 0.00 0.00 73 1015.2
20260502024111 8 338 3.2 4.8 0.00 0.00 0.00 72 1015.4
20260502023609 8 39 3.2 3.2 0.00 0.00 0.00 73 1015.2
20260502023106 8 15 0.0 0.0 0.00 0.00 0.00 73 1015.7
20260502022602 8 19 0.0 0.0 0.00 0.00 0.00 73 1015.3
20260502022100 8 49 0.0 0.0 0.00 0.00 0.00 72 1015.3
20260502021557 8 20 0.0 0.0 0.00 0.00 0.00 71 1015.2
20260502021054 8 20 0.0 0.0 0.00 0.00 0.00 72 1015.1
20260502020551 8 23 0.0 0.0 0.00 0.00 0.00 71 1014.9
20260502020048 8 16 0.0 0.0 0.00 0.00 0.00 71 1014.8
20260502015546 8 16 0.0 0.0 0.00 0.00 0.00 71 1014.9
20260502015042 8 352 4.8 6.4 0.00 0.00 0.00 70 1014.9
20260502014539 8 1 0.0 0.0 0.00 0.00 0.00 70 1014.7
20260502014036 8 8 0.0 0.0 0.00 0.00 0.00 70 1014.6
20260502013532 8 32 0.0 0.0 0.00 0.00 0.00 70 1014.7
20260502013028 8 355 1.6 3.2 0.00 0.00 0.00 70 1014.7
20260502012526 8 1 0.0 0.0 0.00 0.00 0.00 69 1014.6
20260502012023 8 24 0.0 0.0 0.00 0.00 0.00 68 1014.4
20260502011520 8 14 0.0 1.6 0.00 0.00 0.00 68 1014.7
20260502011016 8 17 0.0 0.0 0.00 0.00 0.00 68 1014.8
20260502010514 9 26 0.0 0.0 0.00 0.00 0.00 68 1014.6
20260502010010 9 27 0.0 0.0 0.00 0.00 0.00 67 1014.6
20260502005508 9 11 0.0 1.6 0.00 0.00 0.00 69 1013.9
20260502005005 9 3 0.0 0.0 0.00 0.00 0.00 68 1014.0
20260502004500 9 12 0.0 0.0 0.00 0.00 0.00 69 1014.2
20260502003958 9 358 1.6 3.2 0.00 0.00 0.00 69 1014.0
20260502003455 10 359 0.0 0.0 0.00 0.00 0.00 69 1014.0
20260502002951 10 3 0.0 0.0 0.00 0.00 0.00 68 1013.9
20260502002449 10 8 0.0 0.0 0.00 0.00 0.00 69 1014.1
20260502001946 10 7 3.2 3.2 0.00 0.00 0.00 69 1013.5
20260502001443 10 359 1.6 1.6 0.00 0.00 0.00 69 1013.3
20260502000941 10 11 1.6 1.6 0.00 0.00 0.00 68 1013.2
20260502000440 10 8 3.2 3.2 0.00 0.00 0.00 68 1013.0
20260501235935 10 358 1.6 3.2 0.00 0.00 0.00 69 1013.0
20260501235431 10 2 0.0 0.0 0.00 0.00 0.00 70 1012.9
20260501234926 10 19 0.0 0.0 0.00 0.00 0.00 70 1012.5
20260501234423 10 11 0.0 0.0 0.00 0.00 0.00 68 1012.5
20260501233922 10 20 0.0 1.6 0.00 0.00 0.00 70 1012.9
20260501233419 10 61 3.2 3.2 0.00 0.00 0.00 70 1012.4
20260501232914 10 328 0.0 0.0 0.00 0.00 0.00 69 1012.3
20260501232412 11 343 4.8 4.8 0.00 0.00 0.00 69 1012.1
20260501231909 11 346 3.2 3.2 0.00 0.00 0.00 69 1012.3
20260501231408 11 15 0.0 1.6 0.00 0.00 0.00 67 1012.3
20260501230905 11 339 1.6 3.2 0.00 0.00 0.00 66 1012.4
20260501230404 11 16 0.0 0.0 0.00 0.00 0.00 65 1012.4
20260501225901 12 30 3.2 4.8 0.00 0.00 0.00 64 1012.3
20260501225359 12 354 1.6 1.6 0.00 0.00 0.00 64 1012.3
20260501224854 12 21 0.0 0.0 0.00 0.00 0.00 63 1012.1
20260501224352 12 22 1.6 1.6 0.00 0.00 0.00 62 1012.0
20260501223848 13 9 0.0 0.0 0.00 0.00 0.00 59 1011.8
20260501223344 13 345 0.0 0.0 0.00 0.00 0.00 55 1011.6
20260501222840 12 41 4.8 6.4 0.00 0.00 0.00 58 1011.9
20260501222338 13 323 3.2 4.8 0.00 0.00 0.00 57 1011.7
20260501221834 13 209 6.4 6.4 0.00 0.00 0.00 55 1011.8
20260501221332 13 8 0.0 0.0 0.00 0.00 0.00 56 1011.4
20260501220830 13 63 1.6 1.6 0.00 0.00 0.00 54 1011.6
20260501220327 13 6 4.8 6.4 0.00 0.00 0.00 53 1011.7
20260501215823 13 25 4.8 4.8 0.00 0.00 0.00 51 1011.6
20260501215319 13 340 1.6 1.6 0.00 0.00 0.00 50 1011.1
20260501214815 14 354 1.6 1.6 0.00 0.00 0.00 49 1011.1
20260501214310 14 336 1.6 3.2 0.00 0.00 0.00 46 1011.0
20260501213807 15 6 0.0 0.0 0.00 0.00 0.00 46 1010.7
20260501213303 15 9 1.6 1.6 0.00 0.00 0.00 46 1010.7
20260501212759 15 3 1.6 4.8 0.00 0.00 0.00 44 1010.8
20260501212255 15 304 4.8 4.8 0.00 0.00 0.00 42 1011.1
20260501211753 15 7 1.6 1.6 0.00 0.00 0.00 41 1010.8
20260501211250 15 353 1.6 1.6 0.00 0.00 0.00 41 1011.0
20260501210747 16 336 3.2 3.2 0.00 0.00 0.00 39 1010.8
20260501210243 16 24 3.2 3.2 0.00 0.00 0.00 36 1010.7
20260501205740 17 311 3.2 3.2 0.00 0.00 0.00 35 1010.6
20260501205237 17 328 8.0 11.3 0.00 0.00 0.00 34 1010.4
20260501204734 17 354 1.6 1.6 0.00 0.00 0.00 33 1010.5
20260501204231 16 345 4.8 4.8 0.00 0.00 0.00 35 1010.5
20260501203727 17 291 6.4 6.4 0.00 0.00 0.00 32 1010.5
20260501203224 17 216 12.9 17.7 0.00 0.00 0.00 30 1010.3
20260501202721 18 296 8.0 11.3 0.00 0.00 0.00 28 1010.1
20260501202218 19 18 6.4 6.4 0.00 0.00 0.00 28 1010.0
20260501201715 19 342 3.2 3.2 0.00 0.00 0.00 27 1010.1
20260501201212 19 315 1.6 1.6 0.00 0.00 0.00 27 1010.1
20260501200708 20 285 4.8 6.4 0.00 0.00 0.00 28 1010.0
20260501200206 19 24 1.6 1.6 0.00 0.00 0.00 32 1010.1
20260501195703 17 306 4.8 6.4 0.00 0.00 0.00 30 1010.5
20260501195159 17 4 3.2 3.2 0.00 0.00 0.00 27 1010.4
20260501194655 17 13 1.6 1.6 0.00 0.00 0.00 29 1010.4
20260501194150 18 319 1.6 1.6 0.00 0.00 0.00 30 1010.5
20260501193648 18 328 3.2 3.2 0.00 0.00 0.00 28 1010.4
20260501193146 19 282 3.2 4.8 0.00 0.00 0.00 28 1010.6
20260501192643 19 289 4.8 6.4 0.00 0.00 0.00 28 1010.6
20260501192140 18 295 4.8 6.4 0.00 0.00 0.00 28 1010.6
20260501191638 19 277 3.2 6.4 0.00 0.00 0.00 26 1010.8
20260501191135 19 57 4.8 6.4 0.00 0.00 0.00 26 1010.6
20260501190631 19 3 3.2 3.2 0.00 0.00 0.00 29 1010.8
20260501190126 20 159 6.4 6.4 0.00 0.00 0.00 26 1011.1
20260501185622 19 291 1.6 1.6 0.00 0.00 0.00 29 1010.5
20260501185118 18 277 6.4 6.4 0.00 0.00 0.00 27 1010.8
20260501184614 18 216 3.2 3.2 0.00 0.00 0.00 29 1010.6
20260501184109 18 323 1.6 3.2 0.00 0.00 0.00 24 1010.8
20260501183606 18 324 4.8 6.4 0.00 0.00 0.00 26 1010.6
20260501183103 18 270 8.0 11.3 0.00 0.00 0.00 25 1010.8
20260501182559 17 315 6.4 9.7 0.00 0.00 0.00 25 1010.7
20260501182056 17 339 3.2 4.8 0.00 0.00 0.00 28 1011.1
20260501181553 18 36 3.2 4.8 0.00 0.00 0.00 28 1011.0
20260501181050 17 316 8.0 9.7 0.00 0.00 0.00 25 1010.8
20260501180548 17 11 8.0 11.3 0.00 0.00 0.00 31 1011.0
20260501180044 17 268 8.0 11.3 0.00 0.00 0.00 25 1010.8
20260501175541 17 241 6.4 9.7 0.00 0.00 0.00 30 1011.3
20260501175038 17 171 9.7 11.3 0.00 0.00 0.00 28 1011.4
20260501174535 17 160 9.7 11.3 0.00 0.00 0.00 29 1011.3
20260501174033 17 95 6.4 6.4 0.00 0.00 0.00 28 1011.5
20260501173530 17 267 11.3 14.5 0.00 0.00 0.00 27 1011.5
20260501173026 17 221 3.2 3.2 0.00 0.00 0.00 29 1011.3
20260501172522 17 268 4.8 4.8 0.00 0.00 0.00 33 1011.5
20260501172018 16 149 6.4 6.4 0.00 0.00 0.00 27 1011.5
20260501171514 16 287 6.4 6.4 0.00 0.00 0.00 28 1011.6
20260501171011 15 334 3.2 4.8 0.00 0.00 0.00 26 1011.8
20260501170507 16 180 8.0 12.9 0.00 0.00 0.00 22 1011.8
20260501170005 17 315 4.8 6.4 0.00 0.00 0.00 23 1011.8
20260501165502 17 4 1.6 1.6 0.00 0.00 0.00 23 1011.9
20260501165000 17 347 3.2 3.2 0.00 0.00 0.00 22 1011.9
20260501164458 16 314 8.0 11.3 0.00 0.00 0.00 25 1011.8
20260501163954 16 324 6.4 11.3 0.00 0.00 0.00 28 1011.9
20260501163450 16 310 9.7 11.3 0.00 0.00 0.00 27 1012.0
20260501162947 16 348 4.8 4.8 0.00 0.00 0.00 28 1012.0
20260501162443 16 68 3.2 4.8 0.00 0.00 0.00 31 1012.1
20260501161941 15 338 1.6 1.6 0.00 0.00 0.00 34 1012.2
20260501161437 15 200 3.2 4.8 0.00 0.00 0.00 38 1012.4
20260501160934 15 223 4.8 6.4 0.00 0.00 0.00 35 1012.3
20260501160431 15 307 4.8 4.8 0.00 0.00 0.00 39 1012.5
20260501155928 15 142 6.4 9.7 0.00 0.00 0.00 35 1012.6
20260501155425 14 46 3.2 3.2 0.00 0.00 0.00 36 1012.9
20260501154922 13 41 3.2 4.8 0.00 0.00 0.00 35 1012.9